{"data":{"norad_id":66668,"epoch":"2026-05-25T03:41:00.336768Z","epoch_age_seconds":52027,"freshness":"FRESH","line1":"1 66668U 25276C   26145.15347612  .00027881  00000+0  10723-2 0  9991","line2":"2 66668  97.4056 219.5250 0008159  97.4978 262.7187 15.26335051 26974","mean_motion":15.26335051,"eccentricity":0.0008159,"inclination_deg":97.4056,"raan_deg":219.525,"arg_perigee_deg":97.4978,"mean_anomaly_deg":262.7187,"bstar":0.0010723,"rev_number":2697,"period_min":94.343637005293,"perigee_km":481.17836946991,"apogee_km":492.38054014086,"semimajor_km":6864.9164548054,"source":"CELESTRAK","updated_at":"2026-05-25T13:38:06.384177Z"}}